Simultaneous Nadir Overpasses (SNOs) Predictions

Prediction of SNOs between AQUA and METOP-C Satellite Orbit:

Table of predicted SNOs for the next 14.0 days since TLE Epoch: 6/21/2019
Index Date (AQUA) Time (AQUA) Lat,Lon (AQUA) SZA (AQUA ) Date (METOP-C) Time (METOP-C) Lat,Lon (METOP-C) SZA (METOP-C ) Distance(km) Time Diff (sec)
1 06/23/2019 18:05:19 -73.79, 83.02 129.61 06/23/2019 18:04:35 -73.78, 83.11 129.62 3.16 44
2 06/23/2019 18:54:47 73.84,-109.46 50.44 06/23/2019 18:55:13 73.84,-109.41 50.44 1.53 26
3 06/26/2019 13:39:34 -73.79, 149.45 129.54 06/26/2019 13:38:58 -73.78, 149.52 129.54 2.58 36
4 06/26/2019 14:29:02 73.85, -43.04 50.53 06/26/2019 14:29:36 73.85, -42.98 50.52 1.74 34
5 06/29/2019 09:13:49 -73.80,-144.13 129.40 06/29/2019 09:13:21 -73.78,-144.06 129.41 2.45 28
6 06/29/2019 10:03:17 73.86, 23.37 50.67 06/29/2019 10:03:59 73.85, 23.44 50.66 2.31 42
7 07/02/2019 03:58:22 73.04, 116.25 49.97 07/02/2019 03:57:17 72.98, 113.21 50.05 99.05 65
8 07/02/2019 04:48:03 -73.81, -77.71 129.21 07/02/2019 04:47:43 -73.79, -77.65 129.23 2.88 20
9 07/02/2019 05:37:31 73.88, 89.77 50.87 07/02/2019 05:38:21 73.86, 89.86 50.84 3.33 50
10 07/04/2019 23:32:43 73.38,-178.00 50.56 07/04/2019 23:31:34 73.29,-179.71 50.56 55.60 69
11 07/05/2019 00:22:17 -73.77, -11.19 129.02 07/05/2019 00:22:06 -73.79, -11.24 128.99 2.83 11
12 07/05/2019 01:11:45 73.85, 156.28 51.07 07/05/2019 01:12:44 73.87, 156.29 51.09 2.75 59




NCC Satellite Simultaneous Nadir Overpasses (SNOs) Prediction Service
